Regional Weather Roundup
Issued by NWS

Home | Current Version | Previous Version | Graphics & Text | Print | Product List | Glossary On
Versions: 1 2 3 4 5 6 7 8 9 10 11 12 13 14 15 16 17 18 19 20 21 22 23 24 25 26 27 28 29 30 31 32 33 34 35 36 37 38 39 40 41 42 43 44 45 46 47 48 49 50
000
ASUS43 KIND 220609
RWRIN

WEATHER ROUNDUP FOR INDIANA
NATIONAL WEATHER SERVICE INDIANAPOLIS IN
200 AM EDT TUE JUL 22 2014

NOTE: "FAIR" INDICATES FEW OR NO CLOUDS BELOW 12,000 FEET WITH NO
SIGNIFICANT WEATHER AND/OR OBSTRUCTIONS TO VISIBILITY.

* - STATION DOES NOT REPORT WEATHER SUCH AS PRECIPITATION OR FOG.

+ - STATION NOT QUALITY CONTROLLED BY THE NATIONAL WEATHER SERVICE.
    USE DATA WITH CAUTION...ESPECIALLY DEWPOINT AND RELATIVE
    HUMIDITY OBSERVATIONS.

INZ001>003-010>013-019-020-220700-
NORTHWEST INDIANA

CITY           SKY/WX    TMP DP  RH WIND       PRES   REMARKS
GARY /AIRPORT/ CLEAR     68  65  91 CALM      30.07S
KNOX *+        CLEAR     62  59  91 CALM      30.08S
LA PORTE +     CLEAR     64  64 100 CALM      30.09S FOG
6HR MIN TEMP:  64; 6HR MAX TEMP:  80;

MICHIGAN CITY+ CLEAR     64  63  94 CALM      30.08S
MONTICELLO +   CLEAR     64  63  97 CALM      30.08S
RENSSELAER +   CLEAR     63  63 100 CALM      30.08F FOG
VALPARAISO     CLEAR     70  64  81 S6        30.08F
6HR MIN TEMP:  68; 6HR MAX TEMP:  81;


$$

LMZ046-743>745-220700-
SOUTHERN LAKE MICHIGAN

STATION/POSITION TIME  TEMP WIND        PRES
                       AIR  DIR/SP/G
                 (UTC) (F)  (DEG/KT/KT) (MB)
BURNS HARBOR     0600   71  200/  6/  8 1018.6S
MICHIGAN CITY    0600   74  150/  8/ 10   N/A

$$

INZ004-005-014>016-021>024-220700-
NORTH CENTRAL INDIANA

CITY           SKY/WX    TMP DP  RH WIND       PRES   REMARKS
GOSHEN         CLEAR     66  63  90 CALM      30.09F
6HR MIN TEMP:  66; 6HR MAX TEMP:  83;

LOGANSPORT +   CLEAR     61  61 100 SE5       30.10S FOG
PERU/GRISSOM   CLEAR     65  65 100 CALM      30.09F
6HR MIN TEMP:  65; 6HR MAX TEMP:  82;

ROCHESTER +    CLEAR     64  63  94 CALM      30.10S
SOUTH BEND     CLEAR     70  63  78 CALM      30.09S
6HR MIN TEMP:  69; 6HR MAX TEMP:  83;

WARSAW +       CLEAR     63  63 100 CALM      30.10S FOG

$$

INZ006>009-017-018-025>027-220700-
NORTHEAST INDIANA

CITY           SKY/WX    TMP DP  RH WIND       PRES   REMARKS
ANGOLA *+      CLEAR     64  63  94 CALM      30.11S
AUBURN +       CLEAR     64  61  88 CALM      30.11S
FORT WAYNE     CLEAR     67  62  84 CALM      30.10F
6HR MIN TEMP:  66; 6HR MAX TEMP:  82;

HUNTINGTON +   CLEAR     65  64  96 CALM      30.09F
6HR MIN TEMP:  64; 6HR MAX TEMP:  81;


$$

INZ028-029-035-036-043>045-051>053-220700-
WEST CENTRAL INDIANA

CITY           SKY/WX    TMP DP  RH WIND       PRES   REMARKS
GREENCASTLE +  CLEAR     64  64 100 CALM      30.10F
LAFAYETTE      CLEAR     65  63  93 CALM      30.08F FOG
6HR MIN TEMP:  64; 6HR MAX TEMP:  80;

TERRE HAUTE    CLEAR     64  62  93 CALM      30.08F FOG
6HR MIN TEMP:  64; 6HR MAX TEMP:  81;


$$

INZ030>032-037>040-046>048-054>057-064-065-220700-
CENTRAL INDIANA

CITY           SKY/WX    TMP DP  RH WIND       PRES   REMARKS
CP ATTERBURY + FOG       63  61  94 CALM      30.11S VSB 1/2
GREENWOOD *+   CLEAR     68  66  94 CALM      30.11S
INDIANAPOLIS   CLEAR     72  64  76 SE3       30.09F
6HR MIN TEMP:  71; 6HR MAX TEMP:  82;

-EAGLE CREEK   CLEAR     70  66  87 CALM      30.09F
6HR MIN TEMP:  70; 6HR MAX TEMP:  82;

KOKOMO *+      CLEAR     64  63  94 CALM      30.10F
MARION +       CLEAR     64  62  96 CALM      30.11S
MT COMFORT *+  CLEAR     63 N/A N/A CALM      30.11S
SHELBYVILLE    CLEAR     66  62  87 E3        30.10S FOG
6HR MIN TEMP:  65; 6HR MAX TEMP:  83;

ZIONSVILLE +     N/A     65  62  88 CALM      30.11S FOG
6HR MIN TEMP:  65; 6HR MAX TEMP:  82;


$$

INZ033-034-041-042-049-050-058-059-220700-
EAST CENTRAL INDIANA

CITY           SKY/WX    TMP DP  RH WIND       PRES   REMARKS
MUNCIE         CLEAR     65  61  87 CALM      30.11F
6HR MIN TEMP:  64; 6HR MAX TEMP:  80;


$$

INZ060-061-067>069-081>083-085>088-220700-
SOUTHWEST INDIANA

CITY           SKY/WX    TMP DP  RH WIND       PRES   REMARKS
EVANSVILLE     CLEAR     72  67  84 CALM      30.08S
6HR MIN TEMP:  71; 6HR MAX TEMP:  86;

HUNTINGBURG *+ CLEAR     70  64  83 CALM      30.08F
6HR MIN TEMP:  70; 6HR MAX TEMP:  84;

WASHINGTON +   CLEAR     66  66 100 CALM      30.07F FOG
6HR MIN TEMP:  65; 6HR MAX TEMP:  80;


$$

INZ062-063-066-070>080-084-089>092-220700-
SOUTH CENTRAL AND SOUTHEAST INDIANA

CITY           SKY/WX    TMP DP  RH WIND       PRES   REMARKS
BLOOMINGTON    FOG       64  62  93 CALM      30.10S VSB 1/4
6HR MIN TEMP:  64; 6HR MAX TEMP:  82;


$$




USA.gov is the U.S. government's official web portal to all federal, state and local government web resources and services.